ONEWEB-0264 (48982 NORAD) Tracking and Keplerian Element Data

This shows tracking and keplerian element data for the satellite.

Feedback or suggestion? Click here.




ElementValue
Catalog48982
NameONEWEB-0264
Epoch Orbit1387
Epoch Day269.25001157
Epoch Year2021
RAAN211.7705
Inclination87.8731
Eccentricity0.0011142
Argument of Perigee4.9347
Mean Anonmoly50.0057
Mean Motion13.5026196
Decay Rate1.4E-07
L11 48982U 21060R 21269.25001157 .00000014 00000-0 00000+0 0 9995
L22 48982 87.8731 211.7705 0011142 4.9347 50.0057 13.50261960 13875

Live tracking and technical data element details for ONEWEB-0264 (NORAD 48982). ONEWEB-0264 can be tracked NOW for your location showing map with azimuth and elevation plus other details from your city location.

Track the satellite on the map from your city or location and see movement details for azimuth, elevation, latitude, longitude, range, height, and movement on the map or in text.







IsCatalogInMostPopularTable: catalog: 48982, numindb: 18
Update: records affected: 1



GetName: 48982 ONEWEB-0264

Hit Count: updated at: Sun, 26 Sep 2021 16:04:03 GMT